Find Starlink 32118

NORAD ID: 60280 Int'l Des: 2024-132 Owner: SPXS Country: US Constellation: starlink operational
LEOCIRCULAR

Current View

Loading 3D Globe...

About Starlink 32118

Starlink 32118 (NORAD 60280) is a starlink constellation satellite (v2 mini) launched Jul 28, 2024 by SPXS of US. It operates in LEO, CIRCULAR orbit with a mass of 730.00 kg.

Upcoming Passes

Passes for default location (London). Set your location on the main map for personalized predictions.

Altitude History

Loading altitude history...

Two-Line Element Set

1 60280U 24132C 26236.59818644 .00003142 00000-0 10407-3 0 9997
2 60280 53.1591 351.4018 0001354 95.9337 264.1820 15.34404756117284
Epoch: Aug 24, 2026 • Age: 46 hours

Current Status

Altitude 468.1 km
Apogee / Perigee N/A
Velocity 7.64 km/s
Sub-Earth Point 52.58°N, 70.82°W
Launch Date Jul 28, 2024
Age 2 years
Type internet

Technical Details

Classification Payload
Mass 730.00 kg
Dry Mass 700.00 kg
Total Mass 730.00 kg
Length 0.30 m
Diameter 4.10 m
Span 29.00 m
Shape Box + pan
Manufacturer SPXS
Bus Type Starlink V2M
Phase Status In Orbit
Owner/State SPXS/US

Most Searched